DIRECTV 9S

Last updated on Fri Jul 10 2026 00:03:01 GMT+0000 (Coordinated Universal Time)

1 29494U 06043A 26190.33832299 -.00000102 00000+0 00000+0 0 9990 2 29494 2.4747 80.6364 0005067 30.7573 196.4800 1.00270944 51601
UTC large
Height (km)
Speed (km/s)
/
Latitude / Longitude
Inclination (degrees)
Orbital Period (minutes)
Azimuth
Elevation
Range (km)
Doppler Factor

Next 0 passes for location: London (51.5072 / 0.1276)

No passes found over London.
DIRECTV 9S